OneWeb SL0455

operational
NORAD ID: 51645 Int'l Des: 2022-012 Owner: ONEWEBN Country: UK Constellation: oneweb
LEOCIRCULARPOLAR

关于 OneWeb SL0455

正在加载描述...

实时位置

正在加载3D地球...

即将过境

高度历史

Altitude vs Time

uPlot chart will show altitude changes over time

两行轨道根数

1 51645U 22012Z 25261.23497978 .00000247 00000-0 10092-3 0 9991
2 51645 87.5372 348.9915 0015161 310.1025 49.8836 14.23452235187454
Epoch: Sep 18, 2025 • Age: 16 hours

当前状态

高度 832.2 km
速度 7.44 km/s
星下点 -79.82°S, 4.9°E
发射日期 Feb 10, 2022
运行时间 3.6 years
类型 internet

技术详情

分类 Payload
质量 148.00 kg
干质量 140.00 kg
总质量 148.00 kg
长度 1.30 m
直径 1.00 m
跨度 5.00 m
形状 Trapezoid+2 pan
制造商 ONEWUS
平台类型 ARROW
阶段状态 In Orbit
所有者/国家 ONEWEBN/UK

大型星座

Loading constellations...